Home   Weather   Tuzla   Past weeks

Flag for Bosnia-Herzegovina Past Weather in Tuzla, Bosnia-Herzegovina — Yesterday and Last 2 Weeks

Now
73 °F

Passing clouds.


Feels Like: 77 °F
Forecast: 60 / 75 °F
Wind: 5 mph from Southwest

Location: Tuzla

Current Time: Apr 27, 2017 at 3:06:40 pm

Latest Report: Apr 27, 2017 at 2:30 pm


Visibility: N/A

Pressure: 29.89 "Hg

Humidity: 41%

Dew Point: 48 °F

Location of TuzlaLocation

Past Weather in Tuzla — Graph

°F

Tuzla Temperature Yesterday

Maximum temperature yesterday: 73 °F (at 2:00 pm)
Minimum temperature yesterday: 46 °F (at 12:00 am)
Average temperature yesterday: 63 °F

High & Low Weather Summary for the Past Weeks

 TemperatureHumidityPressure
High73 °F (Apr 13, 2:00 pm)100% (Apr 16, 12:00 am)30.39 "Hg (Apr 16, 12:00 am)
Low28 °F (Apr 18, 5:30 am)15% (Apr 13, 1:00 pm)29.77 "Hg (Apr 13, 3:30 pm)
Average49 °F67%30.00 "Hg
* Reported Apr 12 2:00 pm — Apr 27 2:00 pm, Tuzla, Weather by CustomWeather, © 2017

Note: Actual official high and low records may vary slightly from our data, if they occured in-between our weather recording intervals... More about our weather records

Advertising

Tuzla Weather History for the Previous 24 Hours

Scroll right to see more
 ConditionsComfort  
Time TempWeatherWind HumidityBarometerVisibility
2:00 pm
Thu, Apr 27
73 °FPassing clouds.5 mph41%29.89 "HgN/A
1:30 pm72 °FSunny.1 mph44%29.89 "Hg10 mi
1:00 pm72 °FPassing clouds.7 mph44%29.86 "HgN/A
12:30 pm72 °FSunny.3 mph47%29.86 "Hg10 mi
12:00 pm72 °FSunny.2 mph44%29.89 "Hg10 mi
11:30 am72 °FPassing clouds.3 mph41%29.89 "HgN/A
11:00 am72 °FPassing clouds.7 mph41%29.89 "HgN/A
10:30 am72 °FPassing clouds.7 mph41%29.86 "HgN/A
10:00 am72 °FPassing clouds.6 mph41%29.86 "HgN/A
9:30 am70 °FPassing clouds.6 mph43%29.86 "HgN/A
9:00 am68 °FPassing clouds.8 mph46%29.86 "HgN/A
8:30 am66 °FPassing clouds.8 mph43%29.86 "HgN/A
8:00 am66 °FPassing clouds.10 mph43%29.86 "HgN/A
7:30 am64 °FSunny.5 mph49%29.86 "Hg10 mi
7:00 am63 °FPassing clouds.8 mph49%29.86 "HgN/A
6:30 am63 °FPassing clouds.8 mph49%29.86 "HgN/A
6:00 am63 °FPassing clouds.9 mph49%29.86 "HgN/A
5:30 am63 °FPassing clouds.9 mph49%29.86 "HgN/A
5:00 am61 °FPassing clouds.7 mph52%29.86 "HgN/A
4:30 am61 °FPassing clouds.7 mph52%29.86 "HgN/A
12:00 am54 °FClear.5 mph58%29.89 "Hg10 mi
11:30 pm
Wed, Apr 26
55 °FClear.7 mph55%29.89 "Hg10 mi
11:00 pm55 °FPassing clouds.3 mph55%29.89 "HgN/A
10:30 pm59 °FClear.2 mph51%29.89 "Hg10 mi
10:00 pm59 °FPassing clouds.3 mph51%29.89 "HgN/A
9:30 pm59 °FPassing clouds.3 mph51%29.89 "HgN/A
9:00 pm59 °FPassing clouds.3 mph55%29.89 "HgN/A
8:30 pm63 °FPassing clouds.2 mph45%29.89 "HgN/A
8:00 pm64 °FPassing clouds.3 mph43%29.89 "HgN/A
7:30 pm66 °FScattered clouds.6 mph40%29.89 "HgN/A
7:00 pm68 °FScattered clouds.6 mph38%29.86 "HgN/A
6:30 pm70 °FScattered clouds.8 mph35%29.86 "HgN/A
6:00 pm72 °FScattered clouds.3 mph33%29.86 "HgN/A
5:30 pm70 °FPartly sunny.5 mph40%29.86 "HgN/A
5:00 pm70 °FPartly sunny.6 mph40%29.86 "HgN/A
4:30 pm70 °FPassing clouds.10 mph38%29.86 "HgN/A
4:00 pm72 °FPassing clouds.10 mph36%29.86 "HgN/A
3:30 pm73 °FPassing clouds.9 mph31%29.86 "HgN/A
3:00 pm73 °FPassing clouds.7 mph31%29.86 "HgN/A
Weather by CustomWeather, © 2017

See weather overviewHow to use our weather pages